Location: Aucun
(42.9667°N, 0.1667°W)
Time: 02:16:57
(UTC+00:00)

ATLAS CENTAUR R/B - Pass Details

Date: 17 February 2020
Orbit: 466 x 681 km, 64.7° (Epoch: 28 March)

Event Time Altitude Azimuth Distance (km) Brightness Sun altitude
Exits shadow 03:43:11 19° 54° (NE) 1,510 4.1 -35.7°
Drops below altitude 10° 03:44:34 10° 47° (NE) 2,006 4.8 -35.4°
Sets 03:46:52 0° 40° (NE) 2,882 5.7 -35.0°
